Regional Weather Roundup
Issued by NWS

Home | Current Version | Previous Version | Graphics & Text | Print | Product List | Glossary On
Versions: 1 2 3 4 5 6 7 8 9 10 11 12 13 14 15 16 17 18 19 20 21 22 23 24 25 26 27 28 29 30 31 32 33 34 35 36 37 38 39 40 41 42 43 44 45 46 47 48
000
ASUS45 KSLC 261410
RWRUT

UTAH REGIONAL WEATHER ROUNDUP
NATIONAL WEATHER SERVICE SALT LAKE CITY UT
800 AM MDT SUN APR 26 2015

UTZ001>011-023>025-261500-

NORTHERN UTAH

CITY           SKY/WX    TMP DP  RH WIND       PRES   REMARKS
BRIGHAM CITY   CLOUDY    42  35  75 NW10      29.90R
HILL AFB       CLOUDY    39  38  97 NW9G21    29.89R WCI  33
LOGAN          LGT RAIN  38  34  85 N15       29.90R WCI  29
OGDEN          CLOUDY    40  35  83 NW10      29.88R WCI  33
PROVO AIRPORT  PTSUNNY   39  34  81 NW24G32   29.88R WCI  28
SALT LAKE CITY LGT RAIN  40  36  86 NW13      29.90R WCI  32
VERNAL         CLOUDY    44  40  85 CALM      29.76R
WENDOVER       SUNNY     39  27  60 W16G22    29.96R WCI  30
HEBER CITY     MIX PCPN  36  34  93 CALM      29.83R
WEST JORDAN    CLOUDY    37  37 100 NW17      29.92R WCI  28

$$

UTZ012>022-026-027-261500-

SOUTHERN/CENTRAL UTAH

CITY           SKY/WX    TMP DP  RH WIND       PRES   REMARKS
BLANDING       CLOUDY    39  38  95 CALM      29.85R
BRYCE CANYON   MOSUNNY   33  30  88 NW14      29.83R WCI  23
CEDAR CITY     FLURRIES  36  34  92 N7        29.89R WCI  30
DELTA          CLOUDY    39  34  81 NW17      29.90R WCI  30
HANKSVILLE     CLOUDY    46  39  76 CALM      29.77R
MILFORD        CLOUDY    40  31  70 N13       29.90R WCI  32
MOAB/CYNLANDS  PTSUNNY   48  45  89 NW6       29.73R
PRICE          MOSUNNY   40  33  76 NW8       29.76R WCI  34
ST GEORGE      PTSUNNY   48  39  71 CALM      29.86R
KANAB          CLOUDY   N/A N/A N/A CALM      29.87R

$$

REGIONAL REPORTS     COLORADO/ARIZONA

CITY           SKY/WX    TMP DP  RH WIND       PRES   REMARKS
CRAIG, CO      MOSUNNY   40  35  83 CALM      29.78R
GRAND JUNCTION RAIN      42  42 100 N6        29.76R FOG
RIFLE          CLOUDY    40  37  89 NE3       29.75R
MONTROSE       CLOUDY    42  39  89 N3        29.77R
CORTEZ         CLOUDY    39  37  92 E3        29.79R
PAGE, AZ       SUNNY     48  40  73 CALM      29.76R
GRAND CANYON   CLOUDY    36  36 100 CALM      29.82R
KINGMAN        SUNNY     46  42  86 CALM      29.87R
FLAGSTAFF      CLOUDY    34  34 100 SW7       29.80R WCI  28

$$

REGIONAL REPORTS    NEVADA/IDAHO/WYOMING

CITY           SKY/WX    TMP DP  RH WIND       PRES   REMARKS
LAS VEGAS, NV  MOSUNNY   58  29  33 NW17G29   29.84R
ELY            SUNNY     34  26  72 NW5       29.98R WCI  30
ELKO           MOSUNNY   36  26  67 SE3       30.04R
POCATELLO, ID  PTSUNNY   36  30  79 SW20G25   29.93R WCI  25
BURLEY         MOSUNNY   36  25  64 W24G32    29.94R WCI  24
EVANSTON, WY   LGT SNOW  32  31  96 W10       29.82R FOG     WCI  24
ROCK SPRINGS   MOSUNNY   39  35  86 SE7       29.77R WCI  34
KEMMERER       CLOUDY    34  34 100 W12       29.78R WCI  25

$$


USA.gov is the U.S. government's official web portal to all federal, state and local government web resources and services.